Home > Weather > Oklahoma City > Past weeks

Flag for USA Past Weather in Oklahoma City, Oklahoma, USA — Yesterday and Last 2 Weeks

Now
78 °F

Scattered clouds.


Feels Like: 80 °F
Forecast: 67 / 80 °F
Wind: 9 mph from South

Location: Will Rogers World Airport

Current Time: May 30, 2016 at 7:23:38 PM

Latest Report: May 30, 2016 at 6:52 PM


Visibility: 10 mi

Pressure: 29.85 "Hg

Humidity: 64%

Dew Point: 65 °F

Location of Oklahoma CityLocation

Past Weather in Oklahoma City — Graph

°F

Oklahoma City Temperature Yesterday

Maximum temperature yesterday: 88 °F (at 3:52 PM)
Minimum temperature yesterday: 67 °F (at 5:52 AM)
Average temperature yesterday: 76 °F

High & Low Weather Summary for the Past Weeks

 TemperatureHumidityPressure
High88 °F (May 25, 3:52 PM)100% (May 20, 1:52 AM)30.21 "Hg (May 20, 1:52 AM)
Low53 °F (May 18, 5:52 AM)30% (May 27, 12:52 AM)29.56 "Hg (May 27, 7:52 AM)
Average69 °F79%29.92 "Hg
* Reported May 15 5:52 PM — May 30 5:52 PM, Oklahoma City, Weather by CustomWeather, © 2016

Note: Actual official high and low records may vary slightly from our data, if they occured in-between our weather recording intervals... More about our weather records

Advertising

Oklahoma City Weather History for the Previous 24 Hours

Scroll right to see more
 ConditionsComfort  
Time TempWeatherWind HumidityBarometerVisibility
5:52 PM
Mon, May 30
81 °FScattered clouds.5 mph58%29.87 "Hg10 mi
4:52 PM82 °FPartly sunny.8 mph55%29.88 "Hg10 mi
3:52 PM80 °FScattered clouds.5 mph58%29.90 "Hg10 mi
2:52 PM80 °FBroken clouds.3 mph60%29.92 "Hg10 mi
1:52 PM77 °FBroken clouds.6 mph64%29.94 "Hg10 mi
12:52 PM76 °FPartly sunny.7 mph69%29.97 "Hg10 mi
11:52 AM74 °FScattered clouds.6 mph71%29.98 "Hg10 mi
10:52 AM71 °FBroken clouds.6 mph81%30.01 "Hg10 mi
9:56 AM69 °FPartly sunny.N/A84%30.06 "Hg10 mi
8:52 AM67 °FPartly sunny.6 mph93%30.01 "Hg10 mi
7:52 AM67 °FPartly sunny.No wind93%29.99 "Hg10 mi
6:52 AM66 °FOvercast.8 mph93%29.98 "Hg10 mi
5:52 AM65 °FOvercast.12 mph97%29.98 "Hg10 mi
4:52 AM66 °FMostly cloudy.12 mph93%29.98 "Hg10 mi
3:52 AM65 °FRain. Fog.9 mph94%30.00 "Hg5 mi
2:52 AM67 °FOvercast.3 mph85%29.97 "Hg10 mi
1:52 AM68 °FMostly cloudy.10 mph78%30.01 "Hg10 mi
12:52 AM67 °FOvercast.13 mph81%30.03 "Hg10 mi
11:52 PM
Sun, May 29
68 °FMostly cloudy.7 mph78%30.02 "Hg10 mi
10:52 PM69 °FThunderstorms. Partly cloudy.6 mph70%30.05 "Hg10 mi
9:52 PM74 °FPassing clouds.18 mph53%30.01 "Hg10 mi
8:52 PM77 °FMore clouds than sun.3 mph69%30.00 "Hg10 mi
7:52 PM77 °FMore clouds than sun.7 mph69%29.99 "Hg10 mi
Weather by CustomWeather, © 2016

See weather overviewHow to use our weather pages